| time (UTC) | temp F | wind direction | speed MPH | gust MPH | rain 1hr in | rain 24hr in | rain mn in | humidity % | barometer mb |
| 20260506013100 | 68 | 233 | 10.0 | 23.0 | 0.00 | 0.20 | 0.20 | 36 | 1012.1 |
| 20260506011625 | 68 | 232 | 9.0 | 20.0 | 0.00 | 0.20 | 0.20 | 34 | 1011.9 |
| 20260506010103 | 69 | 223 | 10.0 | 23.0 | 0.00 | 0.20 | 0.20 | 32 | 1011.8 |
| 20260506004626 | 70 | 259 | 11.0 | 22.0 | 0.00 | 0.20 | 0.20 | 31 | 1011.6 |
| 20260506003112 | 71 | 255 | 10.0 | 26.0 | 0.00 | 0.20 | 0.20 | 29 | 1011.5 |
| 20260506001600 | 71 | 257 | 12.0 | 27.0 | 0.00 | 0.20 | 0.20 | 27 | 1011.5 |
| 20260506000058 | 72 | 243 | 13.0 | 23.0 | 0.00 | 0.20 | 0.20 | 25 | 1011.3 |
| 20260505234637 | 72 | 225 | 14.0 | 28.0 | 0.00 | 0.20 | 0.20 | 24 | 1011.1 |
| 20260505233114 | 72 | 223 | 14.0 | 25.0 | 0.00 | 0.20 | 0.20 | 25 | 1011.1 |
| 20260505231601 | 72 | 272 | 13.0 | 27.0 | 0.00 | 0.20 | 0.20 | 28 | 1011.1 |
| 20260505230100 | 74 | 277 | 10.0 | 23.0 | 0.00 | 0.20 | 0.20 | 30 | 1011.0 |
| 20260505224600 | 74 | 207 | 10.0 | 24.0 | 0.00 | 0.20 | 0.20 | 31 | 1011.1 |
| 20260505223059 | 74 | 258 | 13.0 | 27.0 | 0.00 | 0.20 | 0.20 | 30 | 1011.4 |
| 20260505221601 | 74 | 234 | 8.0 | 27.0 | 0.00 | 0.20 | 0.20 | 31 | 1011.5 |
| 20260505220107 | 74 | 227 | 13.0 | 28.0 | 0.00 | 0.20 | 0.20 | 28 | 1011.5 |
| 20260505214608 | 75 | 201 | 9.0 | 23.0 | 0.00 | 0.20 | 0.20 | 32 | 1011.5 |
| 20260505213105 | 74 | 229 | 15.0 | 32.0 | 0.00 | 0.20 | 0.20 | 31 | 1011.8 |
| 20260505211604 | 74 | 212 | 15.0 | 29.0 | 0.00 | 0.20 | 0.20 | 32 | 1012.0 |
| 20260505210103 | 74 | 233 | 14.0 | 29.0 | 0.00 | 0.20 | 0.20 | 32 | 1012.1 |
| 20260505204603 | 73 | 268 | 15.0 | 28.0 | 0.00 | 0.20 | 0.20 | 35 | 1012.2 |
| 20260505203107 | 74 | 227 | 12.0 | 24.0 | 0.00 | 0.20 | 0.20 | 36 | 1012.3 |
| 20260505201605 | 73 | 254 | 12.0 | 27.0 | 0.00 | 0.20 | 0.20 | 37 | 1012.2 |
| 20260505200108 | 73 | 254 | 12.0 | 29.0 | 0.00 | 0.20 | 0.20 | 39 | 1012.4 |
| 20260505194558 | 73 | 248 | 14.0 | 27.0 | 0.00 | 0.20 | 0.20 | 40 | 1012.5 |
| 20260505193100 | 72 | 246 | 14.0 | 33.0 | 0.00 | 0.20 | 0.20 | 38 | 1012.5 |
| 20260505191602 | 71 | 252 | 14.0 | 26.0 | 0.00 | 0.20 | 0.20 | 41 | 1012.6 |
| 20260505190059 | 71 | 231 | 11.0 | 24.0 | 0.00 | 0.20 | 0.20 | 45 | 1013.1 |
| 20260505184606 | 70 | 232 | 12.0 | 24.0 | 0.00 | 0.20 | 0.20 | 45 | 1013.2 |
| 20260505183100 | 69 | 240 | 9.0 | 17.0 | 0.00 | 0.20 | 0.20 | 49 | 1013.3 |
| 20260505181600 | 68 | 234 | 4.0 | 15.0 | 0.00 | 0.20 | 0.20 | 59 | 1013.6 |
| 20260505180105 | 68 | 280 | 9.0 | 15.0 | 0.00 | 0.20 | 0.20 | 54 | 1013.6 |
| 20260505174613 | 68 | 281 | 5.0 | 14.0 | 0.00 | 0.20 | 0.20 | 56 | 1013.7 |
| 20260505173100 | 68 | 288 | 5.0 | 14.0 | 0.00 | 0.20 | 0.20 | 57 | 1013.7 |
| 20260505171603 | 67 | 299 | 5.0 | 11.0 | 0.00 | 0.20 | 0.20 | 62 | 1013.8 |
| 20260505170138 | 67 | 209 | 1.0 | 9.0 | 0.00 | 0.20 | 0.20 | 61 | 1013.7 |
| 20260505164608 | 64 | 231 | 1.0 | 8.0 | 0.00 | 0.20 | 0.20 | 67 | 1014.0 |
| 20260505163057 | 63 | 302 | 2.0 | 9.0 | 0.00 | 0.20 | 0.20 | 68 | 1014.0 |
| 20260505161604 | 64 | 234 | 3.0 | 8.0 | 0.00 | 0.20 | 0.20 | 67 | 1014.1 |
| 20260505153101 | 60 | 254 | 1.0 | 3.0 | 0.00 | 0.20 | 0.20 | 76 | 1014.1 |
| 20260505151559 | 59 | 0 | 0.0 | 1.0 | 0.00 | 0.20 | 0.20 | 82 | 1013.9 |
| 20260505124601 | 56 | 0 | 0.0 | 3.0 | 0.00 | 0.20 | 0.20 | 91 | 1012.5 |
| 20260505123115 | 56 | 0 | 0.0 | 3.0 | 0.01 | 0.20 | 0.20 | 91 | 1012.6 |
| 20260505121559 | 56 | 0 | 1.0 | 7.0 | 0.01 | 0.20 | 0.20 | 90 | 1012.4 |
| 20260505120058 | 57 | 331 | 0.0 | 1.0 | 0.01 | 0.20 | 0.20 | 90 | 1012.5 |
| 20260505114615 | 57 | 0 | 0.0 | 0.0 | 0.01 | 0.20 | 0.20 | 89 | 1012.1 |
| 20260505113105 | 56 | 0 | 0.0 | 2.0 | 0.00 | 0.19 | 0.19 | 87 | 1012.0 |
| 20260505111611 | 57 | 0 | 0.0 | 2.0 | 0.01 | 0.19 | 0.19 | 87 | 1012.3 |
| 20260505101602 | 56 | 0 | 1.0 | 4.0 | 0.02 | 0.18 | 0.18 | 88 | 1012.9 |
| 20260505100101 | 56 | 0 | 1.0 | 5.0 | 0.03 | 0.18 | 0.18 | 88 | 1013.5 |
| 20260505094557 | 56 | 0 | 0.0 | 3.0 | 0.04 | 0.18 | 0.18 | 88 | 1013.7 |
| 20260505093100 | 56 | 0 | 1.0 | 6.0 | 0.05 | 0.17 | 0.17 | 88 | 1014.0 |
| 20260505091600 | 56 | 163 | 4.0 | 9.0 | 0.08 | 0.16 | 0.16 | 87 | 1014.7 |
| 20260505090100 | 56 | 174 | 4.0 | 8.0 | 0.11 | 0.15 | 0.15 | 88 | 1015.0 |
| 20260505084600 | 56 | 170 | 3.0 | 6.0 | 0.12 | 0.14 | 0.14 | 89 | 1015.7 |
| 20260505083117 | 56 | 156 | 2.0 | 8.0 | 0.11 | 0.12 | 0.12 | 89 | 1015.9 |
| 20260505081600 | 57 | 217 | 3.0 | 7.0 | 0.08 | 0.08 | 0.08 | 88 | 1016.2 |
| 20260505080058 | 57 | 240 | 0.0 | 4.0 | 0.04 | 0.04 | 0.04 | 87 | 1016.2 |
| 20260505074600 | 57 | 240 | 2.0 | 5.0 | 0.02 | 0.02 | 0.02 | 86 | 1016.5 |
| 20260505073107 | 58 | 225 | 2.0 | 9.0 | 0.01 | 0.01 | 0.01 | 82 | 1016.5 |
| 20260505071604 | 58 | 226 | 3.0 | 9.0 | 0.00 | 0.00 | 0.00 | 80 | 1016.4 |
| 20260505070100 | 59 | 200 | 4.0 | 10.0 | 0.00 | 0.00 | 0.00 | 76 | 1016.3 |
| 20260505064604 | 60 | 228 | 6.0 | 12.0 | 0.00 | 0.00 | 0.00 | 71 | 1016.2 |
| 20260505063058 | 60 | 229 | 4.0 | 12.0 | 0.00 | 0.00 | 0.00 | 71 | 1016.1 |
| 20260505061602 | 60 | 240 | 2.0 | 5.0 | 0.00 | 0.00 | 0.00 | 70 | 1016.2 |
| 20260505060104 | 62 | 248 | 6.0 | 15.0 | 0.00 | 0.00 | 0.00 | 66 | 1016.1 |
| 20260505054606 | 62 | 0 | 0.0 | 2.0 | 0.00 | 0.00 | 0.00 | 56 | 1016.0 |
| 20260505053113 | 63 | 0 | 0.0 | 4.0 | 0.00 | 0.00 | 0.00 | 54 | 1016.1 |
| 20260505051558 | 64 | 0 | 0.0 | 5.0 | 0.00 | 0.00 | 0.00 | 55 | 1016.2 |
| 20260505041614 | 62 | 0 | 0.0 | 5.0 | 0.00 | 0.00 | 0.00 | 54 | 1015.7 |
| 20260505040100 | 62 | 350 | 2.0 | 5.0 | 0.00 | 0.00 | 0.00 | 54 | 1015.9 |
| 20260505034604 | 62 | 0 | 0.0 | 9.0 | 0.00 | 0.00 | 0.00 | 54 | 1015.7 |
| 20260505033100 | 63 | 40 | 1.0 | 3.0 | 0.00 | 0.00 | 0.00 | 48 | 1015.3 |
| 20260505031608 | 63 | 0 | 0.0 | 1.0 | 0.00 | 0.00 | 0.00 | 48 | 1015.5 |
| 20260505030104 | 62 | 13 | 0.0 | 1.0 | 0.00 | 0.00 | 0.00 | 49 | 1015.8 |
| 20260505024558 | 63 | 5 | 0.0 | 3.0 | 0.00 | 0.00 | 0.00 | 49 | 1015.9 |
| 20260505023104 | 63 | 0 | 0.0 | 4.0 | 0.00 | 0.00 | 0.00 | 49 | 1015.8 |
| 20260505021601 | 64 | 0 | 0.0 | 4.0 | 0.00 | 0.00 | 0.00 | 48 | 1016.1 |
| 20260505020100 | 64 | 329 | 1.0 | 10.0 | 0.00 | 0.00 | 0.00 | 47 | 1016.0 |
| 20260505014557 | 65 | 360 | 4.0 | 8.0 | 0.00 | 0.00 | 0.00 | 44 | 1015.4 |